0 HST 1 20580U 90037B 26061.17768228 .00008803 00000-0 29260-3 0 9991 2 20580 28.4700 91.2397 0001619 50.0273 310.0465 15.29341956772160 0 ISS (ZARYA) 1 25544U 98067A 26060.83336604 .00009867 00000-0 19089-3 0 9997 2 25544 51.6319 111.1961 0008284 147.0223 213.1284 15.48387794555112 0 CXO 1 25867U 99040B 26063.59985680 .00000824 00000-0 00000-0 0 9991 2 25867 54.4843 119.7682 8003286 310.7757 0.4217 0.37808937 16926